Location: Brachbach
(49.1847°N, 9.7240°E)
Time: 20:20:54
(UTC+00:00)

QB50P2 - Visible Passes

Search period start: 16 March 2026 00:00
Search period end: 26 March 2026 00:00
Orbit: 518 x 531 km, 98.1° (Epoch: 16 March)

Date Brightness Start Highest point End Pass type
(mag) Time Alt. Az. Time Alt. Az. Time Alt. Az.
16 Mar ? 03:55:15 10° NE 03:58:26 25° E 04:01:35 10° SSE visible
17 Mar ? 03:43:30 10° NE 03:46:13 19° E 03:48:56 10° SE visible
18 Mar ? 03:31:56 10° ENE 03:33:59 14° E 03:36:02 10° ESE visible
19 Mar ? 03:21:08 10° E 03:21:42 10° E 03:22:16 10° E visible
20 Mar ? 04:40:26 10° NNE 04:44:14 77° ESE 04:48:01 10° S visible
21 Mar ? 04:28:18 10° NNE 04:32:02 55° E 04:35:46 10° S visible
22 Mar ? 04:16:14 10° NNE 04:19:49 40° E 04:23:24 10° S visible
23 Mar ? 04:04:12 10° NE 04:07:34 29° E 04:10:54 10° SSE visible
24 Mar ? 03:52:16 10° NE 03:55:16 22° E 03:58:15 10° SSE visible
25 Mar ? 03:40:28 10° NE 03:42:56 16° E 03:45:24 10° SE visible
